[[{"header":{"parameterUnit":"m.s-1","parameterCategory":2,"la1":30.2992,"la2":30.254,"lo1":-89.0895,"lo2":-89.0443,"dy":0.0025,"dx":0.0025,"nx":19,"ny":19,"refTime":"2026-04-02T21:00:00:Z","depth":"0","parameterNumber":2,"parameterNumberName":"U-component_of_CURRENTS"},"data":[0,0,0,0.0907,0.0907,0.0885,0.0885,0.0821,0.082,0,0,0,0,0,0,0,0,0,0,0,0.0915,0.0916,0.0907,0.0907,0.0885,0.0885,0.0821,0.082,0,0,0,0,0,0,0,0,0,0,0,0.0915,0.0915,0.0916,0.0907,0.0885,0.0885,0.0821,0.0843,0,0,0,0,0,0,0,0,0,0,0.0867,0.0885,0.0915,0.0916,0.0907,0.0885,0.0885,0.0844,0.0841,0.0826,0,0.0836,0,0.0833,0.0817,0.0817,0,0,0,0.089,0.0887,0.0885,0.0916,0.0907,0.0885,0.089,0.0842,0.0839,0.0822,0.0835,0.0833,0.0832,0.0816,0.0816,0.0868,0.0869,0,0,0.0892,0.0902,0.0888,0.0884,0.0918,0.0891,0.089,0.0841,0.0842,0.0835,0.0832,0.0831,0.0816,0.0816,0.0867,0.0869,0,0,0,0.0906,0.0903,0.0902,0.0886,0.0889,0.0891,0.0889,0.0844,0.0845,0.0831,0.083,0.0816,0.0815,0.0866,0.0868,0.0967,0,0,0,0.0906,0.0913,0.0903,0.0908,0.0891,0.0871,0.0894,0.0849,0.0843,0.0831,0.0816,0.0815,0.0865,0.0867,0.0962,0.0984,0,0,0,0.0913,0.0913,0.0917,0.0909,0.0907,0.0872,0.087,0.0847,0.0843,0.0816,0.0814,0.0864,0.0867,0.0958,0.0977,0.1084,0,0,0,0.0915,0.0939,0.0918,0.0951,0.0908,0.0929,0.087,0.0869,0.0853,0.0815,0.0865,0.0868,0.0957,0.0972,0.1079,0.1206,0.124,0,0,0.0948,0.0943,0.0965,0.0947,0.0987,0.093,0.0971,0.0918,0.0885,0.0873,0.0874,0.0964,0.0976,0.1083,0.1339,0.1369,0,0,0,0.0978,0.0996,0.1006,0.1023,0.1023,0.1026,0.0981,0.0981,0.0987,0.0889,0.0983,0.0987,0.1052,0.1118,0.1143,0.1224,0.0878,0.0878,0.0878,0.102,0.1031,0.1061,0.1075,0.109,0.109,0.1107,0.1099,0.1054,0.1091,0.1084,0.1249,0.1322,0.1342,0.1424,0.1113,0.1114,0.1114,0.1114,0.1059,0.1063,0.1086,0.1113,0.1126,0.1149,0.1198,0.1201,0.1277,0.1203,0.1263,0.1238,0.1375,0.1453,0.1121,0.112,0.1119,0.1118,0.1118,0.1062,0.1059,0.1078,0.1102,0.1138,0.1168,0.1261,0.1306,0.1352,0.1414,0.1508,0.1507,0.1563,0.1463,0.1464,0.1464,0.1465,0.1465,0.1466,0.1029,0.105,0.1055,0.1087,0.1101,0.1169,0.1302,0.1404,0.1575,0.1622,0.1623,0.165,0.1355,0.1327,0.1475,0.1473,0.1472,0.1471,0.1471,0.1011,0.1008,0.1024,0.1036,0.1092,0.1181,0.1331,0.1627,0.1762,0.1884,0.1984,0.1751,0.1733,0.1713,0.1694,0.1928,0.1928,0.1928,0.1929,0.0977,0.0984,0.0989,0.101,0.1073,0.1184,0.1435,0.1701,0.2035,0.2189,0.2217,0.2176,0.2154,0.2155,0.2125,0.2111,0.2447,0.2447,0.2448,0.0949,0.096,0.0955,0.0985,0.1053,0.1205,0.1434,0.1735,0.2231,0.247,0.2313,0.2291,0.2222,0.218,0.2163,0.2115,0.2083,0,0]},{"header":{"parameterUnit":"m.s-1","parameterCategory":2,"la1":30.2992,"la2":30.254,"lo1":-89.0895,"lo2":-89.0443,"dy":0.0025,"dx":0.0025,"nx":19,"ny":19,"refTime":"2026-04-02T21:00:00:Z","depth":"0","parameterNumber":3,"parameterNumberName":"V-component_of_CURRENTS"},"data":[0,0,0,-0.019,-0.0191,-0.0233,-0.0233,-0.0269,-0.0269,0,0,0,0,0,0,0,0,0,0,0,-0.0176,-0.0176,-0.019,-0.0191,-0.0233,-0.0233,-0.0269,-0.0269,0,0,0,0,0,0,0,0,0,0,0,-0.0176,-0.0176,-0.0177,-0.0192,-0.0233,-0.0233,-0.0269,-0.0241,0,0,0,0,0,0,0,0,0,0,-0.0202,-0.0188,-0.0176,-0.0177,-0.0192,-0.0233,-0.0233,-0.0239,-0.0242,-0.0246,0,-0.0257,0,-0.0266,-0.0271,-0.0272,0,0,0,-0.0187,-0.0185,-0.0202,-0.0177,-0.0192,-0.0233,-0.0213,-0.0241,-0.0244,-0.025,-0.0258,-0.026,-0.0267,-0.0272,-0.0272,-0.0242,-0.0241,0,0,-0.0185,-0.0176,-0.02,-0.0205,-0.021,-0.0212,-0.0214,-0.0243,-0.0245,-0.0258,-0.0261,-0.0267,-0.0272,-0.0272,-0.0242,-0.0242,0,0,0,-0.0181,-0.0175,-0.0191,-0.0203,-0.0213,-0.0213,-0.0216,-0.0244,-0.0252,-0.0261,-0.0268,-0.0272,-0.0273,-0.0243,-0.0242,-0.0171,0,0,0,-0.018,-0.0173,-0.019,-0.0185,-0.0213,-0.0231,-0.0216,-0.025,-0.0253,-0.0267,-0.0272,-0.0273,-0.0244,-0.0243,-0.0174,-0.0127,0,0,0,-0.0173,-0.0172,-0.018,-0.0184,-0.0205,-0.023,-0.0239,-0.0251,-0.0257,-0.0272,-0.0273,-0.0244,-0.0243,-0.0177,-0.0133,-0.0079,0,0,0,-0.0157,-0.0158,-0.018,-0.0178,-0.0205,-0.0201,-0.0239,-0.0244,-0.0252,-0.0272,-0.0244,-0.0242,-0.0178,-0.0137,-0.0082,-0.001,0.0013,0,0,-0.0146,-0.0157,-0.0153,-0.0173,-0.0155,-0.0194,-0.016,-0.0195,-0.023,-0.0234,-0.0234,-0.0173,-0.0133,-0.008,0.0071,0.0092,0,0,0,-0.014,-0.0131,-0.0132,-0.0128,-0.014,-0.0117,-0.0155,-0.0158,-0.0161,-0.023,-0.0165,-0.0141,-0.011,-0.0074,-0.0057,-0.0143,-0.0236,-0.0236,-0.0236,-0.009,-0.0094,-0.0068,-0.0066,-0.006,-0.0063,-0.0043,-0.0051,-0.0109,-0.0092,-0.0077,0.0023,0.0062,0.0075,-0.0015,-0.008,-0.0079,-0.0079,-0.0079,-0.0032,-0.0006,0.0001,0.0023,0.0036,0.006,0.0072,0.0048,0.0075,0.0009,0.0035,0.0007,0.0098,-0.0005,-0.0074,-0.0075,-0.0076,-0.0076,-0.0076,0.0021,0.0034,0.0044,0.0091,0.0139,0.0141,0.0225,0.0197,0.0154,0.0181,0.02,0.0199,0.0104,0.018,0.018,0.0181,0.0181,0.0181,0.0182,0.007,0.0084,0.0124,0.0165,0.0204,0.0268,0.0307,0.0338,0.0339,0.0303,0.0303,0.0141,0.0102,0.0086,0.0189,0.0188,0.0187,0.0186,0.0185,0.0138,0.0132,0.0199,0.024,0.0342,0.0467,0.0484,0.0567,0.0561,0.0583,0.0348,0.0369,0.0357,0.0343,0.0333,0.0494,0.0494,0.0494,0.0494,0.0182,0.0183,0.0276,0.036,0.0473,0.0566,0.0762,0.0804,0.065,0.0539,0.0424,0.036,0.0351,0.0332,0.0318,0.0305,0.0455,0.0455,0.0454,0.0235,0.0251,0.0332,0.0401,0.0533,0.0694,0.0909,0.1038,0.0736,0.0438,0.0291,0.0293,0.0177,0.017,0.0117,0.0106,0.0075,0,0]}],[{"header":{"parameterUnit":"m.s-1","parameterCategory":2,"la1":30.2992,"la2":30.254,"lo1":-89.0895,"lo2":-89.0443,"dy":0.0025,"dx":0.0025,"nx":19,"ny":19,"refTime":"2026-04-02T21:00:00:Z","depth":"2","parameterNumber":2,"parameterNumberName":"U-component_of_CURRENTS"},"data":[0,0,0,0.1029,0.1029,0.1016,0.1015,0.0973,0.0973,0,0,0,0,0,0,0,0,0,0,0,0.1033,0.1034,0.1029,0.1029,0.1016,0.1015,0.0973,0.0973,0,0,0,0,0,0,0,0,0,0,0,0.1033,0.1034,0.1034,0.1029,0.1016,0.1015,0.0974,0.0987,0,0,0,0,0,0,0,0,0,0,0.1002,0.1013,0.1033,0.1034,0.1029,0.1016,0.1015,0.0988,0.0986,0.0977,0,0.0984,0,0.0983,0.0971,0.0971,0,0,0,0.1017,0.1014,0.1014,0.1034,0.1029,0.1016,0.1018,0.0987,0.0985,0.0974,0.0984,0.0982,0.0983,0.0971,0.0971,0.1035,0.1036,0,0,0.1017,0.1024,0.1016,0.1014,0.1038,0.1019,0.1018,0.0986,0.0986,0.0983,0.0981,0.0982,0.097,0.097,0.1034,0.1035,0,0,0,0.1028,0.1024,0.1025,0.1015,0.1018,0.1019,0.1018,0.0988,0.0989,0.0981,0.0981,0.097,0.097,0.1033,0.1035,0.1127,0,0,0,0.1028,0.1031,0.1026,0.1028,0.1019,0.1006,0.102,0.0991,0.0988,0.0982,0.097,0.097,0.1032,0.1034,0.1122,0.1143,0,0,0,0.1032,0.1032,0.1035,0.1029,0.1029,0.1007,0.1006,0.0991,0.0989,0.0971,0.0969,0.1031,0.1034,0.1118,0.1136,0.1239,0,0,0,0.1031,0.1054,0.1035,0.1068,0.1029,0.1059,0.1006,0.1011,0.1002,0.097,0.1032,0.1035,0.1116,0.1132,0.1234,0.1314,0.1344,0,0,0.1062,0.1057,0.108,0.1064,0.111,0.106,0.1109,0.1065,0.1035,0.1036,0.1037,0.1124,0.1136,0.1238,0.1445,0.147,0,0,0,0.1092,0.1108,0.1121,0.1142,0.115,0.1161,0.1126,0.1129,0.114,0.1043,0.1144,0.1149,0.1211,0.1249,0.127,0.1045,0.1045,0.1045,0.1045,0.1125,0.1143,0.1177,0.1199,0.122,0.1231,0.1253,0.1251,0.1208,0.1244,0.124,0.1398,0.1441,0.1458,0.1268,0.1269,0.1269,0.1269,0.127,0.1164,0.1174,0.1206,0.1239,0.1263,0.1293,0.135,0.1351,0.1429,0.1356,0.1413,0.1363,0.1486,0.1277,0.1276,0.1275,0.1274,0.1273,0.1273,0.1165,0.1167,0.119,0.1228,0.1273,0.1311,0.1408,0.1453,0.1498,0.1557,0.1617,0.1616,0.1451,0.1601,0.1601,0.1602,0.1603,0.1603,0.1603,0.1131,0.1158,0.117,0.1214,0.1235,0.1308,0.1443,0.1544,0.1691,0.1721,0.1722,0.151,0.1499,0.1471,0.1612,0.1611,0.1609,0.1609,0.1608,0.1113,0.1114,0.114,0.1159,0.1229,0.1314,0.1465,0.1728,0.1855,0.1956,0.1835,0.1827,0.1807,0.179,0.1769,0.1979,0.1979,0.1979,0.1979,0.1081,0.109,0.111,0.1142,0.1214,0.1319,0.1526,0.1713,0.1897,0.1939,0.1939,0.1861,0.185,0.1824,0.1806,0.1781,0.1995,0.1995,0.1994,0.1058,0.1073,0.1078,0.1119,0.1197,0.1334,0.1492,0.1614,0.182,0.1983,0.1816,0.2005,0.189,0.1871,0.1825,0.1799,0.1757,0,0]},{"header":{"parameterUnit":"m.s-1","parameterCategory":2,"la1":30.2992,"la2":30.254,"lo1":-89.0895,"lo2":-89.0443,"dy":0.0025,"dx":0.0025,"nx":19,"ny":19,"refTime":"2026-04-02T21:00:00:Z","depth":"2","parameterNumber":3,"parameterNumberName":"V-component_of_CURRENTS"},"data":[0,0,0,-0.0261,-0.0262,-0.0294,-0.0294,-0.0331,-0.0331,0,0,0,0,0,0,0,0,0,0,0,-0.025,-0.025,-0.0261,-0.0262,-0.0294,-0.0294,-0.0331,-0.0331,0,0,0,0,0,0,0,0,0,0,0,-0.025,-0.025,-0.0251,-0.0262,-0.0294,-0.0294,-0.0331,-0.0306,0,0,0,0,0,0,0,0,0,0,-0.0275,-0.0262,-0.025,-0.0251,-0.0262,-0.0294,-0.0294,-0.0305,-0.0308,-0.0316,0,-0.0325,0,-0.0331,-0.0334,-0.0334,0,0,0,-0.0258,-0.026,-0.0275,-0.0251,-0.0262,-0.0294,-0.0278,-0.0307,-0.031,-0.0319,-0.0326,-0.0327,-0.0331,-0.0334,-0.0334,-0.0319,-0.0319,0,0,-0.0256,-0.0249,-0.0273,-0.0277,-0.0276,-0.0277,-0.0279,-0.0309,-0.031,-0.0326,-0.0328,-0.0332,-0.0334,-0.0335,-0.032,-0.0319,0,0,0,-0.0254,-0.0248,-0.0262,-0.0275,-0.0283,-0.0278,-0.0281,-0.0309,-0.0316,-0.0328,-0.0332,-0.0335,-0.0335,-0.032,-0.0319,-0.0256,0,0,0,-0.0252,-0.0247,-0.0261,-0.0256,-0.0282,-0.0296,-0.028,-0.0314,-0.0317,-0.0332,-0.0335,-0.0335,-0.0321,-0.032,-0.0259,-0.0215,0,0,0,-0.0247,-0.0246,-0.0253,-0.0256,-0.0272,-0.0295,-0.0303,-0.0314,-0.032,-0.0334,-0.0335,-0.0321,-0.032,-0.0262,-0.022,-0.0166,0,0,0,-0.0234,-0.0232,-0.0253,-0.0247,-0.0272,-0.0268,-0.0303,-0.0306,-0.0314,-0.0335,-0.0321,-0.032,-0.0262,-0.0223,-0.0169,-0.0128,-0.0109,0,0,-0.022,-0.023,-0.0225,-0.0244,-0.0228,-0.0263,-0.0237,-0.0269,-0.0299,-0.0312,-0.0311,-0.0258,-0.0221,-0.0167,-0.0064,-0.0047,0,0,0,-0.0212,-0.0204,-0.0204,-0.0202,-0.0213,-0.02,-0.0235,-0.0239,-0.0245,-0.0301,-0.0253,-0.0231,-0.0199,-0.0182,-0.0168,-0.0314,-0.0314,-0.0315,-0.0315,-0.0165,-0.017,-0.0147,-0.015,-0.0146,-0.0156,-0.0141,-0.0153,-0.0204,-0.0191,-0.0177,-0.0087,-0.0067,-0.0057,-0.0183,-0.0183,-0.0182,-0.0182,-0.0182,-0.0111,-0.009,-0.009,-0.0069,-0.0067,-0.005,-0.0049,-0.007,-0.0046,-0.0106,-0.0079,-0.0112,-0.0038,-0.0177,-0.0178,-0.0179,-0.0179,-0.018,-0.018,-0.0062,-0.0052,-0.0044,-0.0009,0.0027,0.0021,0.0094,0.0065,0.0027,0.0053,0.0061,0.006,-0.0039,0.0058,0.0058,0.0059,0.0059,0.0059,0.006,-0.0017,-0.0007,0.0028,0.0057,0.0089,0.0144,0.0174,0.0203,0.0194,0.0152,0.0151,-0.0005,-0.0013,-0.0025,0.0067,0.0065,0.0064,0.0064,0.0063,0.0043,0.0038,0.0098,0.0132,0.0216,0.0324,0.0336,0.0399,0.0394,0.0404,0.021,0.0204,0.0193,0.0181,0.0174,0.0312,0.0312,0.0312,0.0312,0.0082,0.0083,0.0167,0.0238,0.0337,0.0413,0.0573,0.058,0.0487,0.0396,0.0393,0.0338,0.0327,0.0318,0.0303,0.0297,0.0467,0.0467,0.0467,0.0125,0.0142,0.0214,0.0277,0.0391,0.053,0.0691,0.0727,0.0568,0.0471,0.0401,0.0326,0.0232,0.0219,0.0189,0.0172,0.0155,0,0]}],[{"header":{"parameterUnit":"m.s-1","parameterCategory":2,"la1":30.2992,"la2":30.254,"lo1":-89.0895,"lo2":-89.0443,"dy":0.0025,"dx":0.0025,"nx":19,"ny":19,"refTime":"2026-04-02T21:00:00:Z","depth":"4","parameterNumber":2,"parameterNumberName":"U-component_of_CURRENTS"},"data":[0,0,0,0.0883,0.0886,0.1047,0.1048,0.1266,0.1268,0,0,0,0,0,0,0,0,0,0,0,0.0841,0.0842,0.0883,0.0886,0.1047,0.1048,0.1266,0.1268,0,0,0,0,0,0,0,0,0,0,0,0.084,0.0841,0.0842,0.0886,0.1046,0.1048,0.1266,0.1149,0,0,0,0,0,0,0,0,0,0,0.0994,0.0941,0.0841,0.0842,0.0887,0.1046,0.1048,0.1143,0.1156,0.1187,0,0.1204,0,0.1222,0.128,0.1281,0,0,0,0.0917,0.0931,0.0966,0.0842,0.0888,0.1046,0.0983,0.115,0.1165,0.1204,0.1207,0.1215,0.1226,0.1281,0.1282,0.1383,0.1382,0,0,0.0908,0.0883,0.0956,0.0975,0.092,0.0978,0.0988,0.1159,0.1175,0.1208,0.122,0.1229,0.1282,0.1284,0.1383,0.1383,0,0,0,0.0862,0.0877,0.0909,0.0966,0.0984,0.0981,0.0993,0.1168,0.1176,0.1222,0.1232,0.1283,0.1286,0.1383,0.1383,0.1409,0,0,0,0.0858,0.0847,0.0905,0.0893,0.098,0.1075,0.0997,0.1165,0.1184,0.1231,0.1284,0.1287,0.1383,0.1383,0.1409,0.1433,0,0,0,0.0835,0.0845,0.0858,0.0891,0.0944,0.1072,0.1093,0.117,0.1189,0.1281,0.1288,0.1384,0.1383,0.1409,0.1432,0.1462,0,0,0,0.0812,0.084,0.0858,0.0893,0.0942,0.1028,0.1092,0.1188,0.1266,0.1284,0.1383,0.1383,0.1409,0.1432,0.1461,0.1334,0,0,0,0.0832,0.0842,0.0861,0.088,0.0953,0.1009,0.1097,0.123,0.1262,0.1334,0.1337,0.1409,0.1432,0.1462,0.1299,0,0,0,0,0.0858,0.0873,0.0896,0.0943,0.1003,0.1084,0.1186,0.123,0.1325,0.1297,0.139,0.1403,0.1421,0.1342,0.138,0.138,0.138,0.138,0.138,0.0847,0.0885,0.0934,0.0992,0.1048,0.1153,0.1219,0.1291,0.1329,0.1359,0.141,0.1431,0.1344,0.1385,0.1385,0.1386,0.1386,0.1386,0.1386,0.0868,0.0892,0.0959,0.1024,0.1104,0.1185,0.1285,0.1328,0.1416,0.1416,0.1432,0.1356,0.1388,0.1387,0.1387,0.1387,0.1387,0.1387,0.1386,0.0839,0.0863,0.092,0.1024,0.1121,0.1215,0.1302,0.1385,0.1442,0.1472,0.1402,0.1455,0.1472,0.1492,0.1492,0.1492,0.1493,0.1493,0.1493,0.0789,0.0852,0.0911,0.1018,0.1082,0.1183,0.1328,0.1384,0.1465,0.1424,0.1497,0.1467,0.1463,0.1477,0.1496,0.1496,0.1495,0.1495,0.1495,0.0753,0.0795,0.087,0.0934,0.1061,0.1116,0.1261,0.135,0.1399,0.1404,0.1391,0.1395,0.1381,0.138,0.1391,0.1386,0.1384,0.1383,0,0.072,0.0747,0.0844,0.0915,0.0979,0.1073,0.1117,0.1206,0.129,0.1248,0.1389,0.1371,0.1374,0.1353,0.135,0.1358,0,0,0,0.0704,0.0741,0.0787,0.0874,0.0938,0.1016,0.1123,0.1131,0.1266,0.1299,0.1344,0.1354,0.1444,0.1507,0.1496,0.1492,0.1514,0,0]},{"header":{"parameterUnit":"m.s-1","parameterCategory":2,"la1":30.2992,"la2":30.254,"lo1":-89.0895,"lo2":-89.0443,"dy":0.0025,"dx":0.0025,"nx":19,"ny":19,"refTime":"2026-04-02T21:00:00:Z","depth":"4","parameterNumber":3,"parameterNumberName":"V-component_of_CURRENTS"},"data":[0,0,0,-0.0021,-0.0021,-0.0027,-0.0027,-0.0082,-0.0082,0,0,0,0,0,0,0,0,0,0,0,-0.0029,-0.0029,-0.0021,-0.0021,-0.0027,-0.0027,-0.0082,-0.0082,0,0,0,0,0,0,0,0,0,0,0,-0.0029,-0.0029,-0.0029,-0.0021,-0.0027,-0.0027,-0.0082,-0.0068,0,0,0,0,0,0,0,0,0,0,-0.0057,-0.0051,-0.0029,-0.0029,-0.0021,-0.0027,-0.0027,-0.0067,-0.0069,-0.0089,0,-0.0089,0,-0.0079,-0.0086,-0.0086,0,0,0,-0.0032,-0.0049,-0.005,-0.0029,-0.002,-0.0026,-0.0027,-0.0068,-0.007,-0.0092,-0.009,-0.0091,-0.008,-0.0087,-0.0087,-0.0147,-0.0147,0,0,-0.0031,-0.0032,-0.0049,-0.0052,-0.0022,-0.0027,-0.0027,-0.0069,-0.0073,-0.009,-0.0092,-0.0081,-0.0087,-0.0087,-0.0147,-0.0147,0,0,0,-0.0023,-0.0032,-0.0031,-0.005,-0.0043,-0.0027,-0.0027,-0.0071,-0.007,-0.0093,-0.0082,-0.0087,-0.0088,-0.0147,-0.0147,-0.0156,0,0,0,-0.0023,-0.0026,-0.0031,-0.0032,-0.0041,-0.0049,-0.0028,-0.0068,-0.0072,-0.0081,-0.0087,-0.0089,-0.0146,-0.0147,-0.0155,-0.0138,0,0,0,-0.0028,-0.0027,-0.0027,-0.0032,-0.0028,-0.0048,-0.005,-0.0068,-0.0065,-0.0087,-0.0089,-0.0146,-0.0147,-0.0154,-0.0138,-0.0113,0,0,0,-0.003,-0.0012,-0.0027,-0.0007,-0.0028,-0.0034,-0.0049,-0.0062,-0.008,-0.0088,-0.0146,-0.0147,-0.0154,-0.0137,-0.0113,-0.0021,0,0,0,-0.0002,-0.0008,0.0005,-0.0008,-0.0014,-0.0034,-0.0056,-0.0086,-0.0097,-0.0137,-0.0138,-0.0155,-0.0138,-0.0113,-0.0055,0,0,0,0,0.0018,0.0015,0.0015,0.0004,-0.0007,-0.0044,-0.0073,-0.0095,-0.0135,-0.0107,-0.0164,-0.0152,-0.0136,-0.0084,-0.015,-0.015,-0.0149,-0.0149,-0.0149,0.0024,0.002,0.0018,-0.0003,-0.0018,-0.0062,-0.0087,-0.0128,-0.0145,-0.0168,-0.0167,-0.0163,-0.0111,-0.0187,-0.0187,-0.0187,-0.0187,-0.0187,-0.0187,0.0034,0.0029,0.0,-0.0002,-0.0048,-0.0078,-0.0126,-0.0145,-0.017,-0.019,-0.0174,-0.0108,-0.0188,-0.0188,-0.0188,-0.0188,-0.0188,-0.0188,-0.0188,0.0027,0.0024,0.0016,-0.001,-0.0044,-0.0082,-0.008,-0.0124,-0.0161,-0.0158,-0.0082,-0.0154,-0.0142,-0.0147,-0.0147,-0.0147,-0.0146,-0.0146,-0.0146,0.0022,0.0015,0.001,-0.0012,-0.002,-0.0027,-0.0048,-0.0042,-0.0083,-0.0063,-0.0147,-0.0148,-0.015,-0.0139,-0.0144,-0.0144,-0.0145,-0.0145,-0.0145,0.0017,0.0019,0.0022,0.002,0.0025,0.0036,0.0023,0.0057,0.0072,0.0077,-0.0009,-0.0016,0.0007,0.0002,0.0018,0.0061,0.0062,0.0063,0,0.0014,0.0013,0.0031,0.0051,0.0083,0.0077,0.0149,0.0157,0.0112,0.0111,0.0039,-0.0061,-0.0065,-0.0044,-0.0046,-0.0028,0,0,0,0.0,0.0014,0.0032,0.0064,0.0107,0.0159,0.0172,0.0193,0.0114,0.0172,0.0094,0.0086,-0.0029,-0.0136,-0.0118,-0.0119,-0.0101,0,0]}]]